Time,TemperatureF,DewpointF,PressureIn,WindDirection,WindDirectionDegrees,WindSpeedMPH,WindSpeedGustMPH,Humidity,HourlyPrecipIn,Conditions,Clouds,dailyrainin,SoftwareType,DateUTC
2013-02-25 00:02:00,17.0,11.0,-100.00,SW,235,0.0,0.0,77,-99.99,,,-99.99,,2013-02-25 06:02:00,
2013-02-25 00:11:00,16.0,11.0,-100.00,WNW,290,0.0,1.0,79,-99.99,,,-99.99,,2013-02-25 06:11:00,
2013-02-25 00:32:00,16.0,11.0,-100.00,WNW,290,0.0,1.0,79,-99.99,,,-99.99,,2013-02-25 06:32:00,
2013-02-25 00:42:00,16.0,11.0,-100.00,WNW,290,0.0,1.0,79,-99.99,,,-99.99,,2013-02-25 06:42:00,
2013-02-25 00:52:00,16.0,11.0,-100.00,WNW,290,0.0,1.0,79,-99.99,,,-99.99,,2013-02-25 06:52:00,
2013-02-25 01:01:00,16.0,11.0,-100.00,WNW,290,0.0,1.0,79,-99.99,,,-99.99,,2013-02-25 07:01:00,
2013-02-25 01:32:00,17.0,12.0,-100.00,NW,305,0.0,3.0,81,-99.99,,,-99.99,,2013-02-25 07:32:00,
2013-02-25 01:42:00,17.0,12.0,-100.00,NW,305,0.0,3.0,81,-99.99,,,-99.99,,2013-02-25 07:42:00,
2013-02-25 01:52:00,17.0,12.0,-100.00,NW,305,0.0,3.0,81,-99.99,,,-99.99,,2013-02-25 07:52:00,
2013-02-25 02:01:00,17.0,12.0,-100.00,NW,305,0.0,3.0,81,-99.99,,,-99.99,,2013-02-25 08:01:00,
2013-02-25 02:11:00,17.0,12.0,-100.00,NW,305,0.0,3.0,81,-99.99,,,-99.99,,2013-02-25 08:11:00,
2013-02-25 02:32:00,16.0,11.0,-100.00,NW,305,0.0,2.0,82,-99.99,,,-99.99,,2013-02-25 08:32:00,
2013-02-25 02:42:00,16.0,11.0,-100.00,NW,305,0.0,2.0,82,-99.99,,,-99.99,,2013-02-25 08:42:00,
2013-02-25 02:52:00,16.0,11.0,-100.00,NW,305,0.0,2.0,82,-99.99,,,-99.99,,2013-02-25 08:52:00,
2013-02-25 03:01:00,16.0,11.0,-100.00,NW,305,0.0,2.0,82,-99.99,,,-99.99,,2013-02-25 09:01:00,
2013-02-25 03:32:00,17.0,12.0,-100.00,WNW,295,0.0,1.0,83,-99.99,,,-99.99,,2013-02-25 09:32:00,
2013-02-25 03:42:00,17.0,12.0,-100.00,WNW,295,0.0,1.0,83,-99.99,,,-99.99,,2013-02-25 09:42:00,
2013-02-25 03:52:00,17.0,12.0,-100.00,WNW,295,0.0,1.0,83,-99.99,,,-99.99,,2013-02-25 09:52:00,
2013-02-25 04:01:00,17.0,12.0,-100.00,WNW,295,0.0,1.0,83,-99.99,,,-99.99,,2013-02-25 10:01:00,
2013-02-25 04:11:00,17.0,12.0,-100.00,WNW,295,0.0,1.0,83,-99.99,,,-99.99,,2013-02-25 10:11:00,
2013-02-25 04:32:00,15.0,11.0,-100.00,NW,310,0.0,1.0,83,-99.99,,,-99.99,,2013-02-25 10:32:00,
2013-02-25 04:42:00,15.0,11.0,-100.00,NW,310,0.0,1.0,83,-99.99,,,-99.99,,2013-02-25 10:42:00,
2013-02-25 04:52:00,15.0,11.0,-100.00,NW,310,0.0,1.0,83,-99.99,,,-99.99,,2013-02-25 10:52:00,
2013-02-25 05:01:00,15.0,11.0,-100.00,NW,310,0.0,1.0,83,-99.99,,,-99.99,,2013-02-25 11:01:00,
2013-02-25 05:11:00,15.0,11.0,-100.00,NW,310,0.0,1.0,83,-99.99,,,-99.99,,2013-02-25 11:11:00,
2013-02-25 05:32:00,17.0,13.0,-100.00,NW,310,1.0,1.0,84,-99.99,,,-99.99,,2013-02-25 11:32:00,
2013-02-25 05:42:00,17.0,13.0,-100.00,NW,310,1.0,1.0,84,-99.99,,,-99.99,,2013-02-25 11:42:00,
2013-02-25 05:52:00,17.0,13.0,-100.00,NW,310,1.0,1.0,84,-99.99,,,-99.99,,2013-02-25 11:52:00,
2013-02-25 06:02:00,17.0,13.0,-100.00,NW,310,1.0,1.0,84,-99.99,,,-99.99,,2013-02-25 12:02:00,
2013-02-25 06:12:00,16.0,12.0,-100.00,NW,315,0.0,3.0,84,-99.99,,,-99.99,,2013-02-25 12:12:00,
2013-02-25 06:32:00,16.0,12.0,-100.00,NW,315,0.0,3.0,84,-99.99,,,-99.99,,2013-02-25 12:32:00,
2013-02-25 06:42:00,16.0,12.0,-100.00,NW,315,0.0,3.0,84,-99.99,,,-99.99,,2013-02-25 12:42:00,
2013-02-25 06:55:00,16.0,12.0,-100.00,NW,315,0.0,3.0,84,-99.99,,,-99.99,,2013-02-25 12:55:00,
2013-02-25 07:02:00,16.0,12.0,-100.00,NW,315,0.0,3.0,84,-99.99,,,-99.99,,2013-02-25 13:02:00,
2013-02-25 07:11:00,17.0,14.0,-100.00,NNE,15,1.0,3.0,85,-99.99,,,-99.99,,2013-02-25 13:11:00,
2013-02-25 07:32:00,17.0,14.0,-100.00,NNE,15,1.0,3.0,85,-99.99,,,-99.99,,2013-02-25 13:32:00,
2013-02-25 07:42:00,17.0,14.0,-100.00,NNE,15,1.0,3.0,85,-99.99,,,-99.99,,2013-02-25 13:42:00,
2013-02-25 07:52:00,17.0,14.0,-100.00,NNE,15,1.0,3.0,85,-99.99,,,-99.99,,2013-02-25 13:52:00,
2013-02-25 08:03:00,17.0,14.0,-100.00,NNE,15,1.0,3.0,85,-99.99,,,-99.99,,2013-02-25 14:03:00,
2013-02-25 08:11:00,24.0,19.0,-100.00,South,190,0.0,1.0,81,-99.99,,,-99.99,,2013-02-25 14:11:00,
2013-02-25 08:32:00,24.0,19.0,-100.00,South,190,0.0,1.0,81,-99.99,,,-99.99,,2013-02-25 14:32:00,
2013-02-25 08:42:00,24.0,19.0,-100.00,South,190,0.0,1.0,81,-99.99,,,-99.99,,2013-02-25 14:42:00,
2013-02-25 08:52:00,24.0,19.0,-100.00,South,190,0.0,1.0,81,-99.99,,,-99.99,,2013-02-25 14:52:00,
2013-02-25 09:02:00,24.0,19.0,-100.00,South,190,0.0,1.0,81,-99.99,,,-99.99,,2013-02-25 15:02:00,
2013-02-25 09:32:00,28.0,20.0,-100.00,SSE,160,0.0,3.0,70,-99.99,,,-99.99,,2013-02-25 15:32:00,
2013-02-25 09:42:00,28.0,20.0,-100.00,SSE,160,0.0,3.0,70,-99.99,,,-99.99,,2013-02-25 15:42:00,
2013-02-25 09:52:00,28.0,20.0,-100.00,SSE,160,0.0,3.0,70,-99.99,,,-99.99,,2013-02-25 15:52:00,
2013-02-25 10:02:00,28.0,20.0,-100.00,SSE,160,0.0,3.0,70,-99.99,,,-99.99,,2013-02-25 16:02:00,
2013-02-25 10:11:00,28.0,20.0,-100.00,SSE,160,0.0,3.0,70,-99.99,,,-99.99,,2013-02-25 16:11:00,
2013-02-25 10:32:00,31.0,20.0,-100.00,South,180,6.0,9.0,62,-99.99,,,-99.99,,2013-02-25 16:32:00,
2013-02-25 10:42:00,31.0,20.0,-100.00,South,180,6.0,9.0,62,-99.99,,,-99.99,,2013-02-25 16:42:00,
2013-02-25 10:52:00,31.0,20.0,-100.00,South,180,6.0,9.0,62,-99.99,,,-99.99,,2013-02-25 16:52:00,
2013-02-25 11:01:00,31.0,20.0,-100.00,South,180,6.0,9.0,62,-99.99,,,-99.99,,2013-02-25 17:01:00,
2013-02-25 11:11:00,31.0,20.0,-100.00,South,180,6.0,9.0,62,-99.99,,,-99.99,,2013-02-25 17:11:00,
2013-02-25 11:12:00,35.0,21.0,-100.00,South,170,4.0,7.0,57,-99.99,,,-99.99,,2013-02-25 17:12:00,
2013-02-25 11:32:00,35.0,21.0,-100.00,South,170,4.0,7.0,57,-99.99,,,-99.99,,2013-02-25 17:32:00,
2013-02-25 11:42:00,35.0,21.0,-100.00,South,170,4.0,7.0,57,-99.99,,,-99.99,,2013-02-25 17:42:00,
2013-02-25 11:52:00,35.0,21.0,-100.00,South,170,4.0,7.0,57,-99.99,,,-99.99,,2013-02-25 17:52:00,
2013-02-25 12:01:00,35.0,21.0,-100.00,South,170,4.0,7.0,57,-99.99,,,-99.99,,2013-02-25 18:01:00,
2013-02-25 12:33:00,36.0,21.0,-100.00,SSE,155,4.0,10.0,53,-99.99,,,-99.99,,2013-02-25 18:33:00,
2013-02-25 12:42:00,36.0,21.0,-100.00,SSE,155,4.0,10.0,53,-99.99,,,-99.99,,2013-02-25 18:42:00,
2013-02-25 12:52:00,36.0,21.0,-100.00,SSE,155,4.0,10.0,53,-99.99,,,-99.99,,2013-02-25 18:52:00,
2013-02-25 13:01:00,36.0,21.0,-100.00,SSE,155,4.0,10.0,53,-99.99,,,-99.99,,2013-02-25 19:01:00,
2013-02-25 13:11:00,36.0,21.0,-100.00,SSE,155,4.0,10.0,53,-99.99,,,-99.99,,2013-02-25 19:11:00,
2013-02-25 13:32:00,36.0,21.0,-100.00,SSE,150,4.0,7.0,53,-99.99,,,-99.99,,2013-02-25 19:32:00,
2013-02-25 13:42:00,36.0,21.0,-100.00,SSE,150,4.0,7.0,53,-99.99,,,-99.99,,2013-02-25 19:42:00,
2013-02-25 13:52:00,36.0,21.0,-100.00,SSE,150,4.0,7.0,53,-99.99,,,-99.99,,2013-02-25 19:52:00,
2013-02-25 14:01:00,36.0,21.0,-100.00,SSE,150,4.0,7.0,53,-99.99,,,-99.99,,2013-02-25 20:01:00,
2013-02-25 14:11:00,36.0,21.0,-100.00,SSE,150,4.0,7.0,53,-99.99,,,-99.99,,2013-02-25 20:11:00,
2013-02-25 14:32:00,39.0,22.0,-100.00,SSE,160,1.0,7.0,51,-99.99,,,-99.99,,2013-02-25 20:32:00,
2013-02-25 14:42:00,39.0,22.0,-100.00,SSE,160,1.0,7.0,51,-99.99,,,-99.99,,2013-02-25 20:42:00,
2013-02-25 14:52:00,39.0,22.0,-100.00,SSE,160,1.0,7.0,51,-99.99,,,-99.99,,2013-02-25 20:52:00,
2013-02-25 15:01:00,39.0,22.0,-100.00,SSE,160,1.0,7.0,51,-99.99,,,-99.99,,2013-02-25 21:01:00,
2013-02-25 15:11:00,39.0,22.0,-100.00,SSE,160,1.0,7.0,51,-99.99,,,-99.99,,2013-02-25 21:11:00,
2013-02-25 15:32:00,38.0,21.0,-100.00,South,175,3.0,7.0,49,-99.99,,,-99.99,,2013-02-25 21:32:00,
2013-02-25 15:42:00,38.0,21.0,-100.00,South,175,3.0,7.0,49,-99.99,,,-99.99,,2013-02-25 21:42:00,
2013-02-25 15:52:00,38.0,21.0,-100.00,South,175,3.0,7.0,49,-99.99,,,-99.99,,2013-02-25 21:52:00,
2013-02-25 16:01:00,38.0,21.0,-100.00,South,175,3.0,7.0,49,-99.99,,,-99.99,,2013-02-25 22:01:00,
2013-02-25 16:11:00,38.0,21.0,-100.00,South,175,3.0,7.0,49,-99.99,,,-99.99,,2013-02-25 22:11:00,
2013-02-25 16:32:00,38.0,21.0,-100.00,SSE,155,2.0,6.0,50,-99.99,,,-99.99,,2013-02-25 22:32:00,
2013-02-25 16:42:00,38.0,21.0,-100.00,SSE,155,2.0,6.0,50,-99.99,,,-99.99,,2013-02-25 22:42:00,
2013-02-25 16:52:00,38.0,21.0,-100.00,SSE,155,2.0,6.0,50,-99.99,,,-99.99,,2013-02-25 22:52:00,
2013-02-25 17:01:00,38.0,21.0,-100.00,SSE,155,2.0,6.0,50,-99.99,,,-99.99,,2013-02-25 23:01:00,
2013-02-25 17:11:00,38.0,21.0,-100.00,SSE,155,2.0,6.0,50,-99.99,,,-99.99,,2013-02-25 23:11:00,
2013-02-25 17:32:00,36.0,20.0,-100.00,SE,140,0.0,4.0,53,-99.99,,,-99.99,,2013-02-25 23:32:00,
2013-02-25 17:42:00,36.0,20.0,-100.00,SE,140,0.0,4.0,53,-99.99,,,-99.99,,2013-02-25 23:42:00,
2013-02-25 17:52:00,36.0,20.0,-100.00,SE,140,0.0,4.0,53,-99.99,,,-99.99,,2013-02-25 23:52:00,
2013-02-25 18:01:00,36.0,20.0,-100.00,SE,140,0.0,4.0,53,-99.99,,,-99.99,,2013-02-26 00:01:00,
2013-02-25 18:11:00,36.0,20.0,-100.00,SE,140,0.0,4.0,53,-99.99,,,-99.99,,2013-02-26 00:11:00,
2013-02-25 18:32:00,33.0,21.0,-100.00,NE,55,1.0,2.0,60,-99.99,,,-99.99,,2013-02-26 00:32:00,
2013-02-25 18:42:00,33.0,21.0,-100.00,NE,55,1.0,2.0,60,-99.99,,,-99.99,,2013-02-26 00:42:00,
2013-02-25 18:52:00,33.0,21.0,-100.00,NE,55,1.0,2.0,60,-99.99,,,-99.99,,2013-02-26 00:52:00,
2013-02-25 19:02:00,33.0,21.0,-100.00,NE,55,1.0,2.0,60,-99.99,,,-99.99,,2013-02-26 01:02:00,
2013-02-25 19:11:00,33.0,21.0,-100.00,NE,55,1.0,2.0,60,-99.99,,,-99.99,,2013-02-26 01:11:00,
2013-02-25 19:32:00,31.0,21.0,-100.00,NNE,15,1.0,2.0,66,-99.99,,,-99.99,,2013-02-26 01:32:00,
2013-02-25 19:42:00,31.0,21.0,-100.00,NNE,15,1.0,2.0,66,-99.99,,,-99.99,,2013-02-26 01:42:00,
2013-02-25 19:52:00,31.0,21.0,-100.00,NNE,15,1.0,2.0,66,-99.99,,,-99.99,,2013-02-26 01:52:00,
2013-02-25 20:01:00,31.0,21.0,-100.00,NNE,15,1.0,2.0,66,-99.99,,,-99.99,,2013-02-26 02:01:00,
2013-02-25 20:11:00,31.0,21.0,-100.00,NNE,15,1.0,2.0,66,-99.99,,,-99.99,,2013-02-26 02:11:00,
2013-02-25 20:32:00,32.0,22.0,-100.00,East,85,4.0,7.0,65,-99.99,,,-99.99,,2013-02-26 02:32:00,
2013-02-25 20:42:00,32.0,22.0,-100.00,East,85,4.0,7.0,65,-99.99,,,-99.99,,2013-02-26 02:42:00,
2013-02-25 20:52:00,32.0,22.0,-100.00,East,85,4.0,7.0,65,-99.99,,,-99.99,,2013-02-26 02:52:00,
2013-02-25 21:02:00,32.0,22.0,-100.00,East,85,4.0,7.0,65,-99.99,,,-99.99,,2013-02-26 03:02:00,
2013-02-25 21:11:00,32.0,22.0,-100.00,East,85,4.0,7.0,65,-99.99,,,-99.99,,2013-02-26 03:11:00,
2013-02-25 21:32:00,31.0,21.0,-100.00,ENE,60,2.0,5.0,66,-99.99,,,-99.99,,2013-02-26 03:32:00,
2013-02-25 21:42:00,31.0,21.0,-100.00,ENE,60,2.0,5.0,66,-99.99,,,-99.99,,2013-02-26 03:42:00,
2013-02-25 21:52:00,31.0,21.0,-100.00,ENE,60,2.0,5.0,66,-99.99,,,-99.99,,2013-02-26 03:52:00,
2013-02-25 22:01:00,31.0,21.0,-100.00,ENE,60,2.0,5.0,66,-99.99,,,-99.99,,2013-02-26 04:01:00,
2013-02-25 22:11:00,31.0,21.0,-100.00,ENE,60,2.0,5.0,66,-99.99,,,-99.99,,2013-02-26 04:11:00,
2013-02-25 22:32:00,31.0,21.0,-100.00,East,90,5.0,9.0,68,-99.99,,,-99.99,,2013-02-26 04:32:00,
2013-02-25 22:42:00,31.0,21.0,-100.00,East,90,5.0,9.0,68,-99.99,,,-99.99,,2013-02-26 04:42:00,
2013-02-25 22:52:00,31.0,21.0,-100.00,East,90,5.0,9.0,68,-99.99,,,-99.99,,2013-02-26 04:52:00,
2013-02-25 23:01:00,31.0,21.0,-100.00,East,90,5.0,9.0,68,-99.99,,,-99.99,,2013-02-26 05:01:00,
2013-02-25 23:11:00,31.0,21.0,-100.00,East,90,5.0,9.0,68,-99.99,,,-99.99,,2013-02-26 05:11:00,
2013-02-25 23:32:00,30.0,21.0,-100.00,ENE,75,5.0,7.0,68,-99.99,,,-99.99,,2013-02-26 05:32:00,
2013-02-25 23:43:00,30.0,21.0,-100.00,ENE,75,5.0,7.0,68,-99.99,,,-99.99,,2013-02-26 05:43:00,
2013-02-25 23:52:00,30.0,21.0,-100.00,ENE,75,5.0,7.0,68,-99.99,,,-99.99,,2013-02-26 05:52:00,